[Date Prev][Date Next][Thread Prev][Thread Next] - [Date Index][Thread Index][Author Index]
2 Line ISS Keps 10-11
- Subject: [sarex] 2 Line ISS Keps 10-11
- From: "Dave Larsen PhD" <doc@xxxxxxxxxxx>
- Date: Thu, 11 Oct 2001 03:09:24 -0700
ISS
1 25544U 98067A 01284.18520288 .00069189 00000-0 77603-3 0 5837
2 25544 51.6391 224.9981 0007615 189.5175 263.9329 15.61982261165183
----
Via the sarex mailing list at AMSAT.ORG courtesy of AMSAT-NA.
To unsubscribe, send "unsubscribe sarex" to Majordomo@amsat.org
AMSAT Home